FW6002 Weather Reports


Display with metric or nautical units.
time (UTC)temp
F
wind
direction
speed
MPH
gust
MPH
rain 1hr
in
rain 24hr
in
rain mn
in
humidity
%
barometer
mb
20260905195556 101 160 1.0 4.0 0.00 0.00 0.00 40 1012.0
20260905195055 103 0 0.0 4.0 0.00 0.00 0.00 38 1012.0
20260905194607 103 192 1.0 4.0 0.00 0.00 0.00 38 1012.2
20260905194058 102 157 0.0 5.0 0.00 0.00 0.00 38 1012.2
20260905193556 100 0 1.0 5.0 0.00 0.00 0.00 41 1012.3
20260905193108 98 185 0.0 3.0 0.00 0.00 0.00 43 1012.2
20260905192556 100 157 0.0 4.0 0.00 0.00 0.00 43 1012.3
20260905192055 99 166 1.0 4.0 0.00 0.00 0.00 41 1012.4
20260905191603 100 250 1.0 5.0 0.00 0.00 0.00 40 1012.3
20260905191056 97 227 1.0 5.0 0.00 0.00 0.00 44 1012.5
20260905190556 96 227 0.0 7.0 0.00 0.00 0.00 45 1012.8
20260905190105 96 185 1.0 8.0 0.00 0.00 0.00 44 1012.8
20260905185555 99 148 2.0 8.0 0.00 0.00 0.00 41 1012.8
20260905185055 100 191 1.0 8.0 0.00 0.00 0.00 40 1012.9
20260905184611 99 190 0.0 3.0 0.00 0.00 0.00 42 1012.8
20260905184055 99 342 1.0 5.0 0.00 0.00 0.00 41 1013.0
20260905183556 98 155 1.0 6.0 0.00 0.00 0.00 43 1013.1
20260905183108 99 0 0.0 7.0 0.00 0.00 0.00 41 1013.2
20260905182556 100 126 2.0 7.0 0.00 0.00 0.00 42 1013.3
20260905182056 98 154 1.0 6.0 0.00 0.00 0.00 43 1013.5
20260905181602 95 19 1.0 5.0 0.00 0.00 0.00 45 1013.4
20260905181056 96 167 1.0 6.0 0.00 0.00 0.00 44 1013.6
20260905180556 98 142 2.0 6.0 0.00 0.00 0.00 42 1013.6
20260905180108 99 59 1.0 4.0 0.00 0.00 0.00 41 1013.7
20260905175557 101 71 1.0 5.0 0.00 0.00 0.00 41 1013.8
20260905175056 99 202 1.0 5.0 0.00 0.00 0.00 43 1013.8
20260905174606 98 0 1.0 6.0 0.00 0.00 0.00 44 1013.9
20260905174055 97 0 1.0 6.0 0.00 0.00 0.00 42 1013.8
20260905173556 98 167 2.0 5.0 0.00 0.00 0.00 43 1013.9
20260905173104 99 71 0.0 2.0 0.00 0.00 0.00 42 1013.9
20260905172555 97 261 0.0 3.0 0.00 0.00 0.00 47 1014.1
20260905172055 96 0 0.0 4.0 0.00 0.00 0.00 46 1014.3
20260905171603 97 59 1.0 5.0 0.00 0.00 0.00 45 1014.4
20260905171056 97 115 1.0 5.0 0.00 0.00 0.00 45 1014.4
20260905170556 96 45 2.0 6.0 0.00 0.00 0.00 45 1014.4
20260905170104 96 28 1.0 6.0 0.00 0.00 0.00 47 1014.4
20260905165555 96 178 2.0 6.0 0.00 0.04 0.00 48 1014.3
20260905165056 96 69 1.0 5.0 0.00 0.04 0.00 47 1014.4
20260905164602 96 211 1.0 4.0 0.00 0.04 0.00 47 1014.4
20260905164055 95 65 1.0 4.0 0.00 0.04 0.00 49 1014.3
20260905163556 96 167 1.0 4.0 0.00 0.04 0.00 50 1014.4
20260905163104 95 54 1.0 4.0 0.00 0.04 0.00 50 1014.4
20260905162558 95 208 1.0 4.0 0.00 0.04 0.00 50 1014.4
20260905162056 95 33 1.0 3.0 0.00 0.04 0.00 51 1014.5
20260905161604 95 0 0.0 3.0 0.00 0.04 0.00 50 1014.6
20260905161056 93 0 1.0 3.0 0.00 0.04 0.00 53 1014.7
20260905160556 95 40 0.0 3.0 0.00 0.04 0.00 52 1014.5
20260905155555 93 68 0.0 3.0 0.00 0.15 0.00 55 1014.4
20260905155056 93 0 0.0 3.0 0.00 0.15 0.00 53 1014.3
20260905154609 92 36 0.0 2.0 0.00 0.15 0.00 57 1014.4
20260905154056 92 165 0.0 4.0 0.00 0.15 0.00 55 1014.4
20260905153559 92 16 0.0 4.0 0.00 0.15 0.00 55 1014.5
20260905153105 92 34 1.0 4.0 0.00 0.15 0.00 55 1014.4
20260905152559 92 261 0.0 5.0 0.00 0.15 0.00 55 1014.4
20260905152056 91 49 0.0 5.0 0.00 0.15 0.00 54 1014.4
20260905151633 91 64 1.0 5.0 0.00 0.15 0.00 54 1014.3
20260905151056 90 0 1.0 5.0 0.00 0.15 0.00 58 1014.3
20260905150556 89 162 0.0 4.0 0.00 0.15 0.00 61 1014.2
20260905150104 89 54 1.0 4.0 0.00 0.15 0.00 61 1014.4
20260905145559 88 78 1.0 4.0 0.00 0.15 0.00 61 1014.4
20260905145055 88 51 1.0 4.0 0.00 0.15 0.00 63 1014.5
20260905144605 87 0 0.0 3.0 0.00 0.15 0.00 67 1014.5
20260905144055 86 0 0.0 2.0 0.00 0.15 0.00 71 1014.6
20260905143557 86 0 0.0 2.0 0.00 0.15 0.00 71 1014.4
20260905143105 85 0 0.0 2.0 0.00 0.15 0.00 73 1014.5
20260905142600 85 50 0.0 2.0 0.00 0.15 0.00 73 1014.5
20260905142056 84 100 0.0 2.0 0.00 0.15 0.00 75 1014.4
20260905141606 84 0 0.0 3.0 0.00 0.15 0.00 75 1014.4
20260905141058 83 0 0.0 3.0 0.00 0.15 0.00 78 1014.4
20260905140556 82 69 0.0 2.0 0.00 0.15 0.00 79 1014.4
20260905135557 81 0 0.0 1.0 0.00 0.15 0.00 81 1014.4
20260905135057 81 0 0.0 1.0 0.00 0.15 0.00 82 1014.5
20260905134600 79 89 0.0 1.0 0.00 0.15 0.00 84 1014.4
20260905134059 78 0 0.0 1.0 0.00 0.15 0.00 88 1014.3
20260905133556 76 0 0.0 1.0 0.00 0.15 0.00 89 1014.3
20260905133103 76 0 0.0 1.0 0.00 0.15 0.00 89 1014.2
20260905132555 75 0 0.0 1.0 0.00 0.15 0.00 89 1014.1
20260905132055 75 0 0.0 1.0 0.00 0.15 0.00 88 1014.0
20260905131608 75 0 0.0 0.0 0.00 0.15 0.00 88 1013.9
20260905131056 75 0 0.0 0.0 0.00 0.15 0.00 88 1014.0
20260905130556 75 0 0.0 0.0 0.00 0.15 0.00 88 1014.1
20260905125555 75 0 0.0 2.0 0.00 0.15 0.00 88 1013.8
20260905125059 74 0 0.0 2.0 0.00 0.15 0.00 88 1013.8
20260905124601 74 0 0.0 1.0 0.00 0.15 0.00 87 1013.6
20260905124055 74 0 0.0 1.0 0.00 0.15 0.00 87 1013.5
20260905123555 74 0 0.0 1.0 0.00 0.15 0.00 87 1013.5
20260905123114 74 0 0.0 1.0 0.00 0.15 0.00 86 1013.5
20260905122558 73 0 0.0 1.0 0.00 0.15 0.00 86 1013.5
20260905122055 73 0 0.0 0.0 0.00 0.15 0.00 85 1013.5
20260905121605 73 0 0.0 0.0 0.00 0.15 0.00 85 1013.6
20260905121056 74 0 0.0 0.0 0.00 0.15 0.00 85 1013.5
20260905120559 74 0 0.0 0.0 0.00 0.15 0.00 85 1013.5
20260905120101 74 0 0.0 0.0 0.00 0.15 0.00 85 1013.6
20260905115556 74 0 0.0 0.0 0.00 0.15 0.00 85 1013.5
20260905115055 74 0 0.0 0.0 0.00 0.15 0.00 85 1013.5
20260905114605 74 0 0.0 0.0 0.00 0.15 0.00 85 1013.5
20260905114055 74 0 0.0 0.0 0.00 0.15 0.00 84 1013.5
20260905113555 74 0 0.0 0.0 0.00 0.15 0.00 84 1013.6
20260905113107 74 0 0.0 0.0 0.00 0.15 0.00 85 1013.5
20260905112559 74 0 0.0 0.0 0.00 0.15 0.00 84 1013.6
20260905112054 74 0 0.0 0.0 0.00 0.15 0.00 84 1013.6
20260905111606 75 0 0.0 0.0 0.00 0.15 0.00 84 1013.6
20260905111056 75 0 0.0 0.0 0.00 0.15 0.00 84 1013.6
20260905110601 75 0 0.0 0.0 0.00 0.15 0.00 84 1013.5
20260905110109 75 0 0.0 0.0 0.00 0.15 0.00 84 1013.6
20260905105556 75 0 0.0 0.0 0.00 0.15 0.00 84 1013.6
20260905105056 75 0 0.0 0.0 0.00 0.15 0.00 84 1013.6
20260905104605 75 0 0.0 0.0 0.00 0.15 0.00 84 1013.4
20260905104056 75 0 0.0 0.0 0.00 0.15 0.00 85 1013.5
20260905103556 75 0 0.0 0.0 0.00 0.15 0.00 84 1013.4
20260905103106 75 0 0.0 0.0 0.00 0.15 0.00 85 1013.4
20260905102555 76 0 0.0 0.0 0.00 0.15 0.00 85 1013.4
20260905102055 76 0 0.0 0.0 0.00 0.15 0.00 85 1013.3
20260905101606 76 0 0.0 0.0 0.00 0.15 0.00 85 1013.3
20260905101054 76 0 0.0 0.0 0.00 0.15 0.00 85 1013.2
20260905100556 76 0 0.0 0.0 0.00 0.15 0.00 85 1013.3
20260905100109 76 0 0.0 0.0 0.00 0.15 0.00 85 1013.3
20260905095555 76 0 0.0 0.0 0.00 0.15 0.00 85 1013.3
20260905095056 76 0 0.0 0.0 0.00 0.15 0.00 85 1013.3
20260905094601 76 0 0.0 1.0 0.00 0.15 0.00 85 1013.1
20260905094055 76 0 0.0 1.0 0.00 0.15 0.00 85 1013.2
20260905093555 76 0 0.0 0.0 0.00 0.15 0.00 85 1013.3
20260905093104 76 0 0.0 1.0 0.00 0.15 0.00 85 1013.3
20260905092555 76 0 0.0 1.0 0.00 0.15 0.00 85 1013.2
20260905092054 76 0 0.0 0.0 0.00 0.15 0.00 85 1013.3
20260905091604 76 0 0.0 0.0 0.00 0.15 0.00 84 1013.2
20260905091055 76 0 0.0 0.0 0.00 0.15 0.00 84 1013.2
20260905090555 76 0 0.0 0.0 0.00 0.15 0.00 84 1013.2
20260905090110 76 0 0.0 0.0 0.00 0.15 0.00 83 1013.1
20260905085556 76 0 0.0 0.0 0.00 0.15 0.00 84 1013.0
20260905085056 76 0 0.0 1.0 0.00 0.15 0.00 83 1013.1
20260905084613 76 0 0.0 1.0 0.00 0.15 0.00 83 1013.1
20260905084057 76 0 0.0 0.0 0.00 0.15 0.00 83 1012.9
20260905083556 76 0 0.0 0.0 0.00 0.15 0.00 82 1013.0
20260905083102 76 0 0.0 0.0 0.00 0.15 0.00 82 1012.9
20260905082555 76 0 0.0 0.0 0.00 0.15 0.00 82 1013.0
20260905082055 76 0 0.0 0.0 0.00 0.15 0.00 82 1013.0
20260905081604 76 0 0.0 0.0 0.00 0.15 0.00 82 1012.9
20260905081055 76 0 0.0 0.0 0.00 0.15 0.00 81 1013.1
20260905080555 77 0 0.0 0.0 0.00 0.15 0.00 81 1013.0
20260905080139 77 0 0.0 0.0 0.00 0.15 0.00 81 1013.2
20260905075555 77 0 0.0 0.0 0.00 0.15 0.00 81 1013.2
20260905075055 77 0 0.0 0.0 0.00 0.15 0.00 80 1013.2
20260905074606 77 0 0.0 0.0 0.00 0.15 0.00 80 1013.2
20260905074055 77 0 0.0 0.0 0.00 0.15 0.00 79 1013.2
20260905073555 78 0 0.0 0.0 0.00 0.15 0.00 78 1013.4
20260905073103 78 0 0.0 0.0 0.00 0.15 0.00 78 1013.3
20260905072559 78 0 0.0 0.0 0.00 0.15 0.00 77 1013.3
20260905072054 78 0 0.0 0.0 0.00 0.15 0.00 77 1013.3
20260905071607 78 0 0.0 0.0 0.00 0.15 0.00 77 1013.4
20260905071057 79 0 0.0 0.0 0.00 0.15 0.00 77 1013.3
20260905070555 79 0 0.0 1.0 0.00 0.15 0.00 76 1013.4
20260905070101 79 0 0.0 1.0 0.00 0.15 0.00 76 1013.4
20260905065556 79 0 0.0 2.0 0.00 0.15 0.00 75 1013.3
20260905065055 80 0 0.0 2.0 0.00 0.15 0.00 75 1013.3
20260905064604 80 0 0.0 2.0 0.00 0.15 0.00 75 1013.4
20260905064055 80 0 0.0 2.0 0.00 0.15 0.00 75 1013.4
20260905063556 80 0 0.0 1.0 0.00 0.15 0.00 74 1013.6
20260905063102 80 0 0.0 1.0 0.00 0.15 0.00 74 1013.6
20260905062554 80 0 0.0 1.0 0.00 0.15 0.00 74 1013.5
20260905062055 80 0 0.0 1.0 0.00 0.15 0.00 73 1013.4
20260905061609 80 0 0.0 2.0 0.00 0.15 0.00 73 1013.4
20260905061055 81 0 0.0 2.0 0.00 0.15 0.00 73 1013.4
20260905060553 81 0 0.0 2.0 0.00 0.15 0.00 72 1013.5
20260905060108 81 79 0.0 2.0 0.00 0.15 0.00 71 1013.4
20260905055558 81 0 0.0 2.0 0.00 0.15 0.00 71 1013.5
20260905055058 81 0 0.0 3.0 0.00 0.15 0.00 71 1013.5
20260905054620 82 0 0.0 3.0 0.00 0.15 0.00 71 1013.4
20260905054054 82 0 0.0 2.0 0.00 0.15 0.00 70 1013.4
20260905053556 82 0 0.0 2.0 0.00 0.15 0.00 70 1013.4
20260905053117 82 0 0.0 2.0 0.00 0.15 0.00 70 1013.3
20260905052556 82 0 0.0 2.0 0.00 0.15 0.00 69 1013.3
20260905052054 82 0 0.0 3.0 0.00 0.15 0.00 69 1013.3
20260905051601 83 0 0.0 4.0 0.00 0.15 0.00 69 1013.1
20260905051053 83 193 0.0 4.0 0.00 0.15 0.00 68 1013.1
20260905050557 83 0 0.0 3.0 0.00 0.15 0.00 68 1013.1
20260905045553 83 0 0.0 5.0 0.00 0.15 0.15 67 1013.1
20260905045053 83 28 1.0 5.0 0.00 0.15 0.15 67 1012.9
20260905044607 84 55 1.0 5.0 0.00 0.15 0.15 67 1013.0
20260905044054 84 0 1.0 4.0 0.00 0.15 0.15 66 1013.0
20260905043554 84 84 1.0 4.0 0.00 0.15 0.15 66 1013.0
20260905043111 84 38 1.0 5.0 0.00 0.15 0.15 66 1013.0
20260905042557 84 55 1.0 5.0 0.00 0.15 0.15 65 1013.0
20260905042054 84 130 1.0 5.0 0.00 0.15 0.15 65 1013.0
20260905041602 85 0 1.0 5.0 0.00 0.15 0.15 64 1013.0
20260905041057 85 0 1.0 4.0 0.00 0.15 0.15 64 1013.1
20260905040553 85 65 1.0 4.0 0.00 0.15 0.15 64 1013.1
20260905040105 85 14 1.0 4.0 0.00 0.15 0.15 63 1013.0
20260905035554 85 49 1.0 6.0 0.00 0.15 0.15 63 1012.9
20260905035054 85 50 1.0 6.0 0.00 0.15 0.15 63 1013.1
20260905034606 86 182 2.0 6.0 0.00 0.15 0.15 62 1013.2
20260905034053 86 213 1.0 5.0 0.00 0.15 0.15 62 1013.2
20260905033553 86 169 1.0 5.0 0.00 0.15 0.15 61 1013.1
20260905033102 86 38 1.0 5.0 0.00 0.15 0.15 61 1013.2
20260905032557 86 52 1.0 5.0 0.00 0.15 0.15 60 1013.1
20260905032054 86 84 1.0 4.0 0.00 0.15 0.15 60 1013.0
20260905031604 87 137 1.0 7.0 0.00 0.15 0.15 59 1013.0
20260905031057 87 44 1.0 7.0 0.00 0.15 0.15 59 1013.0
20260905030556 87 0 2.0 5.0 0.00 0.15 0.15 58 1012.9
20260905030104 87 49 2.0 5.0 0.00 0.15 0.15 58 1012.9
20260905025556 87 180 1.0 4.0 0.00 0.15 0.15 58 1012.7
20260905025056 87 85 1.0 4.0 0.00 0.15 0.15 57 1012.7
20260905024605 87 55 1.0 4.0 0.00 0.15 0.15 57 1012.6
20260905024056 88 47 1.0 4.0 0.00 0.15 0.15 57 1012.4
20260905023556 88 42 1.0 4.0 0.00 0.15 0.15 57 1012.5
20260905023104 88 0 0.0 4.0 0.00 0.15 0.15 56 1012.3
20260905022555 88 213 1.0 7.0 0.00 0.15 0.15 56 1012.2
20260905022057 89 0 1.0 7.0 0.00 0.15 0.15 56 1012.3
20260905021603 89 31 0.0 4.0 0.00 0.15 0.15 55 1012.1
20260905021058 89 71 1.0 4.0 0.00 0.15 0.15 55 1012.1
20260905020559 89 70 1.0 4.0 0.00 0.15 0.15 55 1012.1
20260905020105 89 50 1.0 4.0 0.00 0.15 0.15 55 1011.9
20260905015556 89 102 1.0 4.0 0.00 0.15 0.15 55 1011.9
20260905015056 89 22 1.0 4.0 0.00 0.15 0.15 55 1012.0
20260905014605 89 40 0.0 3.0 0.00 0.15 0.15 55 1011.9
20260905014056 90 193 0.0 3.0 0.00 0.15 0.15 55 1011.8
20260905013555 90 46 0.0 3.0 0.00 0.15 0.15 54 1011.7
20260905013105 90 33 1.0 3.0 0.00 0.15 0.15 54 1011.7
20260905012557 90 84 0.0 3.0 0.00 0.15 0.15 54 1011.6
20260905012056 90 262 0.0 4.0 0.00 0.15 0.15 53 1011.5
20260905011620 91 0 0.0 4.0 0.00 0.15 0.15 53 1011.5
20260905011055 91 184 0.0 4.0 0.00 0.15 0.15 52 1011.3
20260905010556 91 67 0.0 3.0 0.00 0.15 0.15 52 1011.3
20260905010105 92 0 1.0 3.0 0.00 0.15 0.15 51 1011.4
20260905005556 92 84 1.0 4.0 0.00 0.15 0.15 51 1011.2
20260905005056 92 96 0.0 4.0 0.00 0.15 0.15 51 1011.1
20260905004607 92 10 0.0 3.0 0.00 0.15 0.15 50 1011.1
20260905004056 93 65 1.0 5.0 0.00 0.15 0.15 49 1011.1
20260905003556 93 0 0.0 5.0 0.00 0.15 0.15 49 1011.0
20260905003102 93 70 1.0 5.0 0.00 0.15 0.15 49 1011.0
20260905002555 94 40 1.0 6.0 0.00 0.15 0.15 49 1010.9
20260905002059 94 101 2.0 6.0 0.00 0.15 0.15 48 1010.9
20260905001612 94 69 2.0 6.0 0.00 0.15 0.15 48 1010.9
20260905001055 94 209 1.0 6.0 0.00 0.15 0.15 48 1010.7
20260905000559 95 80 1.0 6.0 0.00 0.15 0.15 48 1010.7
20260905000110 95 121 2.0 6.0 0.00 0.15 0.15 47 1010.7
20260904235556 95 88 1.0 4.0 0.00 0.15 0.15 47 1010.7
20260904235055 95 360 1.0 6.0 0.00 0.15 0.15 47 1010.7
20260904234607 95 57 1.0 6.0 0.00 0.15 0.15 46 1010.5
20260904234058 96 71 1.0 6.0 0.00 0.15 0.15 46 1010.6
20260904233559 96 92 1.0 5.0 0.00 0.15 0.15 46 1010.5
20260904233107 96 57 1.0 5.0 0.00 0.15 0.15 46 1010.6
20260904232556 96 87 0.0 4.0 0.00 0.15 0.15 45 1010.6
20260904232059 96 58 1.0 5.0 0.00 0.15 0.15 45 1010.5
20260904231607 97 229 1.0 6.0 0.00 0.15 0.15 44 1010.6
20260904231055 96 176 1.0 6.0 0.00 0.15 0.15 43 1010.6
20260904230555 97 70 2.0 5.0 0.00 0.15 0.15 43 1010.6
20260904230101 97 0 1.0 4.0 0.00 0.15 0.15 43 1010.4
20260904225556 97 306 1.0 6.0 0.00 0.15 0.15 42 1010.6
20260904225056 97 281 2.0 6.0 0.00 0.15 0.15 43 1010.6
20260904224606 97 123 1.0 6.0 0.00 0.15 0.15 43 1010.6
20260904224056 98 0 1.0 7.0 0.00 0.15 0.15 42 1010.6
20260904223556 98 236 1.0 7.0 0.00 0.15 0.15 43 1010.5
20260904223103 98 60 1.0 5.0 0.00 0.15 0.15 42 1010.5
20260904222555 98 165 2.0 5.0 0.00 0.15 0.15 43 1010.5
20260904222056 98 84 1.0 4.0 0.00 0.15 0.15 43 1010.7
20260904221605 98 62 1.0 4.0 0.00 0.15 0.15 42 1010.8
20260904221056 98 68 1.0 7.0 0.00 0.15 0.15 42 1010.7
20260904220556 98 162 2.0 7.0 0.00 0.15 0.15 42 1010.8
20260904220111 98 167 1.0 6.0 0.00 0.15 0.15 42 1010.9
20260904215555 99 68 1.0 6.0 0.00 0.15 0.15 42 1010.8
20260904215056 98 202 1.0 4.0 0.00 0.15 0.15 42 1010.9
20260904214603 98 170 1.0 5.0 0.00 0.15 0.15 43 1010.9
20260904214057 98 0 1.0 6.0 0.00 0.15 0.15 43 1010.9
20260904213556 98 94 1.0 6.0 0.00 0.15 0.15 41 1011.1
20260904213104 98 100 1.0 4.0 0.00 0.15 0.15 43 1011.2
20260904212558 97 107 1.0 5.0 0.00 0.15 0.15 45 1011.3
20260904212056 97 82 1.0 8.0 0.00 0.15 0.15 45 1011.3
20260904211606 99 69 2.0 8.0 0.00 0.15 0.15 44 1011.4
20260904211055 99 231 1.0 5.0 0.00 0.15 0.15 44 1011.5
20260904210555 98 217 1.0 5.0 0.00 0.15 0.15 46 1011.4
20260904210104 96 202 0.0 8.0 0.00 0.15 0.15 48 1011.4
20260904205558 97 52 2.0 8.0 0.00 0.15 0.15 46 1011.7
20260904205056 98 71 1.0 7.0 0.00 0.15 0.15 46 1011.4
20260904204620 98 145 1.0 7.0 0.00 0.15 0.15 48 1011.6
20260904204056 98 0 2.0 7.0 0.00 0.15 0.15 45 1011.6
20260904203556 99 352 0.0 6.0 0.00 0.15 0.15 47 1011.6
20260904203108 98 89 1.0 6.0 0.00 0.15 0.15 46 1011.8
20260904202555 98 73 1.0 6.0 0.00 0.15 0.15 47 1011.9
20260904202055 97 10 0.0 6.0 0.00 0.15 0.15 49 1011.9
20260904201632 97 352 2.0 6.0 0.00 0.15 0.15 47 1012.0
20260904201055 98 209 2.0 8.0 0.00 0.15 0.15 47 1012.1
20260904200555 98 201 1.0 8.0 0.00 0.15 0.15 48 1012.2
20260904200110 97 46 2.0 8.0 0.00 0.15 0.15 49 1012.3